THOR ABLESTAR DEB *, 19961

Orbit data source: Space-Track

THOR ABLESTAR DEB *, 19961 is space debris in LEO originally from a launch on Thu, 29 Jun 1961 UTC launched from the Air Force Eastern Test Range (AFETR). Debris objects in space refer to the collection of defunct objects orbiting the Earth. Examples of debris include non-operational satellites, rocket bodies, and fragments generated from explosions, collisions, or faulty payload assembly.

Loading next visibility...
Identifier
19961, 1961-015MJ
Orbit
LEO
Country
Flag of USUS
Related business
Manufacturer
Unknown
Mission
Spacecraft
Bus & Motor
Unknown
Mass
Unknown
Launch date (UTC)
1961-06-29 (65 years ago)
Launch vehicle
Unknown
Launch site
Air Force Eastern Test Range (AFETR)
Object type
Payload
Rocket body
Debris
Shape & HBR
Unknown shape, 0.1 m
Radar Cross Section
Small (<0.1 m²)

Expand to show TLE details & history
Last TLE update: 3 days ago

TLE from 3 days ago
0 THOR ABLESTAR DEB *
1 19961U 61015MJ  26124.52752045  .00000162  00000-0  22066-3 0  9992
2 19961  65.6424 316.3219 0154414  19.5055  10.6686 13.78648820934509
Epoch: 2026-05-04T12:39Z
TLE epoch observation values (Epoch: 2026-05-04T12:39:37.766Z)
Latitude
27.60475°
Longitude
-82.38122°
Altitude
859.701 km
Speed
7.482 km/s
True Right ascension
21h 59m 45s
True Declination
27° 27' 57"
Sunlit
Object was in daylight at epoch
Visualization orbit readout
Latitude
Unknown
Longitude
Unknown
Altitude
Unknown
Speed
Unknown
Apparent Right ascension
Unknown
Apparent Declination
Unknown
Sunlit
N/A
Visualization observer readout
Local Sidereal Time
12:45:56
Azimuth
Unknown
Elevation
Unknown
Doppler factor
Unknown
Orbital elements
Apogee altitude
1,080.642 km
Perigee altitude
853.797 km
Semi-major axis
7,345.357 km
Eccentricity
0.01544
Inclination
65.6424°
RAAN
316.3219°
Arg. of periapsis
19.5055°
True anomaly
11.0025°
Mean anomaly
10.6686°
Eccentric anomaly
10.83491°
Mean motion
3.44766 °/min
Orbital period
104.42 mins
BSTAR
0.00022066
Loading maneuver chart data...
Computing Atmospheric mass density...

Documentation

Showing up to 5 results
|